Probability
0 0 0 0 0 0 0 0 0 0 0 0 0 0 0 0 0 0 0 0 1 3 3 4 4 2 1 1 2 5 6 6 5 4 3 3 3 3 2 1 1 1 0 0
0 0 0 0 0 0 0 0 0 0 0 0 0 0 0 0 0 0 0 0 2 4 5 6 6 5 3 2 2 3 5 6 6 4 3 3 3 3 3 3 3 3 1 1
0 0 0 0 0 0 0 0 0 0 0 0 0 0 0 0 0 0 0 0 2 5 6 7 8 8 7 4 3 4 6 7 6 5 4 3 4 4 4 4 5 5 4 4
0 0 0 0 0 0 0 0 0 0 0 0 0 0 0 0 0 1 1 1 2 4 7 8 9 10 8 6 5 6 8 8 7 6 5 5 6 6 5 4 5 6 6 6
0 0 0 0 0 0 0 0 0 0 0 0 0 0 0 1 1 2 2 3 3 5 7 8 11 12 8 4 4 7 8 9 8 8 7 8 8 7 6 6 6 6 6 6
0 0 0 0 0 0 0 0 0 0 0 0 0 0 1 2 3 3 4 5 6 7 8 9 11 13 9 5 3 5 7 8 9 9 9 9 8 8 8 8 8 6 6 6
0 0 0 0 0 0 0 0 0 0 0 0 0 1 2 3 3 2 4 6 7 7 7 8 10 12 10 7 6 6 8 10 10 9 9 9 8 7 8 8 8 7 6 6
0 0 0 0 0 0 0 0 0 0 0 0 0 1 2 2 1 1 3 5 6 6 7 9 11 11 10 8 7 9 12 13 12 11 11 10 9 7 8 8 9 9 10 10
0 0 0 0 0 0 0 0 0 0 0 0 0 2 2 1 0 1 3 5 6 6 8 10 10 10 8 7 8 12 16 16 14 14 14 12 11 10 9 10 11 14 15 16
0 0 0 0 0 0 0 0 0 0 0 0 0 1 2 1 1 2 4 6 7 8 9 9 8 8 7 6 8 13 15 15 13 14 15 14 13 12 11 11 13 16 19 20
0 0 0 0 0 0 0 0 0 0 0 0 0 0 1 1 1 3 5 7 8 9 10 9 9 9 9 9 10 12 14 12 12 14 17 17 15 13 12 13 15 18 20 20
0 0 0 0 0 0 0 0 0 0 0 0 0 0 0 1 3 5 6 7 9 10 10 11 12 13 13 13 12 12 12 12 13 16 20 19 18 16 16 18 20 21 22 22
0 0 0 0 0 0 0 0 0 0 0 0 0 0 1 2 5 7 9 9 11 12 13 14 15 17 18 17 15 14 13 13 15 19 22 23 24 24 25 26 26 26 27 26
0 0 0 0 0 0 0 0 0 0 0 0 0 0 1 4 7 10 11 12 13 16 19 21 21 22 23 22 20 19 18 17 19 23 25 26 31 33 34 32 31 32 32 29
0 0 0 0 0 0 0 0 0 0 0 0 0 1 3 7 10 11 12 13 15 19 25 28 29 30 29 28 27 26 24 22 23 28 29 30 34 37 38 37 37 38 35 30
0 0 0 0 0 0 0 0 0 0 0 0 0 1 5 9 11 12 13 15 17 21 27 31 34 35 35 34 33 33 30 29 32 36 37 36 37 39 40 40 41 41 37 32
0 0 0 0 0 0 0 0 0 0 0 0 1 3 6 9 12 14 15 17 18 20 25 30 34 37 38 38 38 38 36 36 41 44 43 41 42 43 44 42 43 42 39 34
0 0 0 0 0 0 0 1 1 0 0 1 2 5 8 11 12 13 16 18 18 20 24 28 31 35 37 38 39 40 41 42 46 47 46 44 45 48 48 46 44 42 37 34
0 0 0 0 0 0 1 2 1 0 0 1 4 8 12 13 10 10 14 18 20 23 27 28 29 31 34 37 40 43 46 48 49 48 47 45 44 47 49 48 45 40 36 34
0 0 0 0 0 1 1 2 1 0 1 3 6 11 14 13 11 12 14 18 24 29 32 32 33 34 35 37 41 45 48 49 47 46 47 45 41 40 41 41 40 37 33 31
0 0 0 0 0 2 3 4 3 3 5 7 10 15 18 16 16 17 17 20 27 33 34 34 36 38 37 37 42 46 45 43 41 41 42 40 36 32 31 32 33 32 28 26
0 0 0 1 2 3 5 6 7 10 11 12 15 20 22 21 20 20 20 24 31 34 34 34 37 38 36 35 40 43 40 37 37 37 37 35 30 26 26 27 28 26 24 23
3 3 3 3 4 5 6 8 10 13 16 19 22 23 25 24 21 18 20 26 30 32 33 33 35 36 34 32 33 35 35 33 33 34 33 30 27 24 25 25 24 22 21 20
8 8 8 8 8 9 10 11 12 13 18 23 26 26 26 26 23 20 21 25 26 26 29 30 31 31 28 25 24 26 29 30 32 32 31 29 26 25 24 22 20 20 19 19
11 12 12 13 13 15 16 16 16 17 22 26 28 28 28 28 27 25 24 24 23 22 23 25 25 24 22 20 19 21 23 27 30 31 30 28 25 23 21 19 18 17 16 15
12 13 14 16 17 18 18 19 20 21 24 29 31 29 29 30 30 29 25 23 22 20 20 20 20 20 20 19 19 19 20 24 27 29 29 26 24 22 19 17 16 14 12 11
Wind_Speed
8 9 8 4 4 4 4 4 3 1 1 4 4 3 5 9 9 9 9 9 9 10 10 10 10 9 9 8 7 7 6 6 4 3 3 3 3 2 2 2 2 1 1 1
10 11 6 4 5 6 6 6 3 0 1 3 4 4 4 9 10 9 9 10 10 11 11 11 11 10 10 9 8 8 7 7 6 4 3 2 2 2 2 1 2 2 2 2
13 5 4 7 7 8 8 6 4 3 3 5 5 4 5 8 9 9 9 9 10 11 12 12 12 11 10 9 9 7 7 7 6 5 4 3 3 3 3 3 2 2 2 2
11 7 7 9 8 9 7 3 5 5 6 3 5 3 4 7 9 11 11 10 10 11 11 12 12 12 11 10 9 8 7 7 6 7 5 5 4 3 3 2 2 2 2 2
9 8 10 10 8 8 5 2 5 6 7 6 5 6 2 6 7 9 11 11 11 11 11 12 12 12 11 10 9 9 8 8 7 7 6 6 5 4 3 3 3 2 2 2
8 7 8 8 6 6 4 5 6 8 8 7 4 7 2 3 4 5 8 10 11 11 11 11 11 11 10 10 9 9 9 8 8 8 7 7 5 4 3 3 3 3 2 2
10 10 8 6 7 9 9 8 6 7 7 4 2 6 2 1 2 3 5 8 10 10 11 12 12 12 11 11 10 9 9 9 9 9 8 7 7 6 6 5 4 3 2 2
12 11 10 9 9 8 10 11 8 7 6 3 5 5 1 1 1 2 4 6 9 10 10 11 12 11 11 11 11 10 10 9 9 8 7 7 7 6 4 4 3 3 2 2
9 9 8 7 7 9 10 10 9 10 8 7 4 3 3 3 3 3 5 6 8 9 9 9 10 11 11 10 10 10 10 9 9 8 8 7 7 6 4 4 4 3 2 2
7 8 8 6 7 7 8 7 7 9 7 8 6 6 3 2 4 5 5 6 7 8 8 9 8 9 9 10 9 10 10 9 8 8 8 7 7 7 6 5 4 3 3 3
9 9 8 9 10 9 8 9 8 8 8 9 6 2 2 1 3 4 5 5 7 8 8 8 8 8 8 9 9 9 9 9 8 8 7 7 7 7 7 6 5 5 4 4
9 9 8 10 6 6 10 10 10 9 7 8 8 2 3 1 2 2 3 4 5 6 7 7 8 7 7 7 8 9 9 9 8 8 7 7 7 7 7 6 6 5 4 4
6 9 10 10 10 8 9 9 10 10 9 9 10 3 4 2 1 1 2 3 4 5 6 6 7 7 6 6 7 8 8 9 9 8 8 7 7 7 7 6 6 5 5 4
7 10 11 11 7 8 10 11 11 12 10 10 10 8 3 2 1 1 2 2 4 5 5 5 6 6 6 6 6 6 7 8 8 8 8 7 7 7 7 6 6 5 5 5
8 10 11 10 8 8 10 11 12 14 13 13 10 9 7 4 3 2 2 3 4 5 5 5 5 5 5 5 5 6 6 6 7 8 7 7 7 6 6 6 6 5 5 5
6 8 9 11 10 10 11 12 12 13 12 13 11 9 4 2 1 2 3 4 4 5 5 5 5 4 5 6 6 6 6 6 7 7 7 6 6 6 6 6 5 5 5 5
6 7 9 11 10 11 13 11 11 10 9 10 10 7 3 3 3 3 3 4 4 4 5 5 5 5 4 5 6 6 6 6 7 7 6 5 5 6 5 5 5 5 5 5
8 8 8 9 10 15 6 4 7 9 8 7 7 5 4 3 2 2 2 3 4 4 4 4 4 4 4 4 5 5 6 6 6 6 5 5 5 5 4 4 4 4 4 4
9 8 8 9 13 12 7 4 5 8 7 6 6 5 3 3 4 3 2 2 3 3 3 3 3 3 3 3 4 5 6 5 5 5 5 5 5 5 5 5 4 4 3 3
9 9 10 10 13 12 6 3 3 6 8 3 3 4 3 4 7 2 1 1 1 1 1 2 2 2 3 3 4 5 6 5 5 4 4 4 4 5 4 4 3 3 3 3
10 10 12 12 12 8 1 1 5 9 2 1 2 2 3 4 4 2 1 1 1 1 2 2 2 3 2 3 4 5 5 4 4 4 4 4 4 4 4 3 3 3 3 2
10 9 11 11 13 7 3 2 4 2 3 2 2 2 2 2 0 1 1 2 2 3 3 3 3 3 3 3 4 5 5 5 5 5 4 4 4 4 4 4 3 3 3 3
7 4 4 5 3 3 2 1 1 2 3 3 3 2 2 2 2 2 2 2 3 4 3 3 4 4 4 3 4 5 4 4 5 5 4 4 4 3 3 3 3 3 3 2
4 2 5 5 3 2 1 1 2 3 4 4 3 3 2 2 2 3 3 3 3 3 3 4 4 4 4 4 3 3 3 4 5 5 4 4 4 4 3 2 2 2 2 2
3 4 5 6 4 3 3 3 4 5 4 4 3 3 2 2 2 2 2 3 2 2 2 3 3 4 4 4 3 3 3 3 4 4 4 4 4 3 3 2 1 1 1 1
5 6 6 4 2 4 3 4 5 4 4 3 2 2 1 1 2 2 2 2 2 2 2 2 3 4 4 3 3 2 2 2 3 3 3 3 3 3 3 3 3 4 3 4
Wind_Direction
199 225 224 222 257 295 290 291 309 25 125 234 240 236 181 187 198 192 189 188 188 189 180 178 180 180 179 179 181 184 186 173 182 182 192 181 176 183 175 166 147 174 166 145
206 223 225 229 237 247 251 265 276 88 127 264 274 255 195 194 203 201 196 194 195 187 179 180 184 185 185 184 186 187 190 185 190 178 192 192 187 190 170 165 155 187 180 191
224 213 204 224 228 240 247 265 286 294 254 224 257 219 188 189 200 202 205 202 197 192 185 182 187 188 189 190 193 192 192 191 195 187 189 180 181 201 180 182 179 187 187 190
229 215 209 225 229 243 248 262 272 259 257 245 257 270 172 182 195 203 205 203 200 194 191 186 187 189 190 191 189 192 189 193 193 197 202 200 197 195 193 198 176 181 188 199
217 213 219 228 233 244 272 266 256 256 261 263 241 267 170 177 200 204 206 205 201 195 192 189 191 190 191 190 189 187 186 191 194 200 199 210 208 202 196 192 172 203 193 208
232 215 229 237 231 222 204 219 226 236 246 248 254 264 243 180 219 208 199 199 198 193 190 189 188 187 190 189 190 188 185 191 195 201 204 211 211 214 212 212 198 207 193 200
212 208 207 216 209 195 215 233 230 226 226 234 217 255 275 346 256 228 198 188 186 187 188 185 185 186 190 191 192 189 187 193 197 201 205 208 211 212 216 224 210 230 216 201
210 206 196 204 222 219 223 240 253 260 254 228 202 245 246 324 257 212 196 178 177 181 186 186 186 188 191 194 195 193 190 194 196 199 201 206 210 215 211 214 229 218 236 229
222 213 183 204 224 237 224 236 261 266 265 264 233 231 226 211 189 178 170 165 171 176 180 183 184 188 190 195 197 196 192 194 196 198 198 202 208 218 216 206 220 222 222 220
243 229 193 187 206 218 253 241 238 249 255 254 237 238 250 213 191 175 168 169 170 172 174 176 180 186 189 191 192 196 194 195 197 198 202 197 200 204 208 217 220 228 226 230
239 232 200 193 215 209 208 217 237 250 259 266 256 234 61 204 194 174 166 170 171 173 171 172 177 182 184 187 187 190 192 195 197 199 200 202 199 199 201 206 213 216 224 222
224 239 222 211 209 248 226 228 229 239 242 258 273 262 94 128 178 176 156 159 167 173 172 171 172 175 180 185 188 189 193 196 198 197 197 200 202 205 206 203 205 207 210 214
208 234 222 205 193 200 224 227 235 248 252 251 256 235 117 126 150 137 146 161 163 171 175 174 174 177 183 189 194 193 197 198 195 191 193 194 198 200 205 205 200 199 204 209
231 236 239 238 227 207 218 226 231 240 245 247 251 263 238 238 229 179 158 168 161 169 179 185 182 182 187 191 193 196 197 196 192 189 192 195 201 203 203 200 200 200 202 204
234 233 236 250 250 239 232 229 225 235 250 259 259 258 267 267 252 222 187 176 178 180 185 194 193 186 188 188 189 195 197 194 193 190 194 198 201 202 202 200 202 200 200 203
233 242 232 235 234 234 238 236 231 235 245 252 256 262 283 259 227 205 195 193 199 197 195 195 194 187 189 190 191 189 191 189 190 194 197 196 197 197 200 199 195 193 198 202
226 231 235 231 223 231 232 231 232 234 242 251 255 265 262 246 227 226 222 211 211 210 207 204 201 196 198 201 195 190 188 187 187 190 192 191 196 198 198 192 186 189 193 194
234 236 238 236 221 233 227 218 236 239 243 253 260 266 248 251 232 233 239 226 215 218 216 212 210 199 197 198 191 184 178 180 181 182 185 188 191 191 187 182 183 187 194 199
228 229 238 235 230 230 212 205 225 235 239 254 253 253 249 245 234 204 207 232 232 224 212 209 215 203 187 181 175 173 170 168 172 175 180 179 179 177 173 174 179 185 191 198
201 221 236 232 240 236 214 174 218 235 233 238 247 246 251 250 248 213 158 202 234 213 175 182 185 168 164 162 162 169 167 164 170 171 175 173 173 168 170 171 178 177 181 190
192 208 227 233 237 235 103 167 198 227 252 15 272 248 245 260 295 11 116 160 170 131 132 143 148 143 142 149 153 155 153 155 154 152 160 163 164 163 162 162 164 166 167 169
212 211 215 228 234 220 82 173 221 331 356 322 285 259 257 287 307 117 132 146 137 120 122 130 129 122 120 133 140 136 136 139 143 154 161 161 163 165 154 153 155 160 164 167
231 256 249 245 246 66 98 161 32 337 319 306 292 294 258 241 202 165 149 136 119 116 115 115 116 116 113 116 126 130 129 141 150 152 156 158 154 156 151 155 159 167 174 185
198 257 252 245 212 185 216 266 319 315 305 299 286 267 248 232 204 167 140 122 112 110 113 118 121 114 104 99 100 107 117 139 146 152 158 160 158 155 149 163 172 182 185 192
260 232 236 241 247 253 239 285 308 308 304 299 282 259 242 213 180 148 132 117 108 96 99 108 112 109 101 94 90 95 112 134 145 152 162 166 157 147 145 146 140 177 127 133
231 240 246 251 244 277 288 312 306 297 294 293 291 291 247 194 153 134 122 116 114 106 102 106 108 106 106 105 96 87 101 134 156 160 169 169 161 158 166 157 135 75 89 91